星链-37075(STARLINK-37075)

导读

STARLINK-37075(NORAD编号68255)是美国SpaceX公司星链(Starlink)星座中的一颗二代低轨互联网通信卫星,运行于近地轨道,主要为全球提供高速低时延卫星互联网接入服务。2025年12月,该卫星突发异常,轨道高度骤降约4000米,随后与地面失去联系,产生少量空间碎片。SpaceX确认卫星大致保持完整但处于翻滚状态,推测异常由卫星内部问题引发,而非碰撞导致。目前该卫星已受控再入大气层,最终在大气层中完全烧毁,SpaceX联合美国太空部门持续监测碎片,对其他在轨卫星影响有限,这一事件也再次引发业界对空间轨道安全规范的讨论。

Basic Information
目录编号:
68255
目录名称:
STARLINK-37075
国际标识:
2026-054Z
轨道中心:
EARTH
卫星名称:
星链-37075
卫星全名:
星链-37075(STARLINK-37075)
卫星状态:
在轨 (已飞行179 天)
发射日期:
2026-03-17 UTC
国别 :
美国 (US)
星等 :
--
This satellite is enrolled in the Space Conjunction Data Service (SCDS) and the current flight risk assessment level is: No High Risk
Orbit Information
数据来源 国际轨道数据 AOE轨道数据
星历时间 2026-09-12T07:39:21+0800
10小时前
查看轨道信息
2026-09-05T23:00:00+0800
6天前
查看轨道信息
半长轴 6840.827km 6840.865km
偏心率 0.0001208 0.0001368
轨道倾角 53.158° 53.157°
近地点辐角 106.243° 63.374°
升交点赤经 141.670° 171.406°
平近点角 253.870° 62.039°
近地点 461.863km 461.792km
远地点 463.517km 463.664km
周期 93.847分钟 93.848分钟
每日圈数 15.344047 15.343919
Detailed Information
固有亮度:
5
最大亮度:
2.5
卫星平台:
Starlink V1.0
覆盖范围:
全球
运营商:
太空探索技术公司
运营商所在国:
美国
制造商(研发单位):
太空探索技术公司
制造商所在国:
美国
使用方式:
暂无
Satellite Introduction
Starlink 计划是 SpaceX 推出的全球卫星互联网项目,通过发射低轨道卫星,为全球尤其是偏远地区提供高速、低延迟的互联网服务。自 2019 年起,Starlink 已部署数千颗卫星,旨在缩小全球数字鸿沟,推动互联网普及。该项目还为军事、航空等行业提供通信支持,带来广泛经济效益。
2D Orbit Map
3D Orbit Map
Orbit Altitude Analysis Chart
Orbit Inclination Analysis Chart
Orbit Comprehensive Analysis Chart
View Comprehensive Chart
Conjunction Data List
Event ID Objects TCA Miss Dist (km) Collision Risk Probability Collision Risk Index (CRI) Action
CDM_260914-174805-179906-825521
2026-09-14T
17:48:29+0000
1.430 km
极远距离
4.968699E-6 低风险 0.49
CDM_260913-171005-227606-825521
2026-09-13T
17:10:12+0000
2.515 km
极远距离
1.527562E-6 低风险 0.39
CDM_260913-194404-945906-825521
2026-09-13T
19:44:54+0000
2.065 km
极远距离
1.376675E-6 低风险 0.38
CDM_260913-200405-246306-825521
2026-09-13T
20:04:35+0000
2.912 km
极远距离
1.206622E-6 低风险 0.37
CDM_260914-192205-179906-825521
2026-09-14T
19:22:16+0000
2.679 km
极远距离
1.060149E-6 低风险 0.36
Miss Distance Evolution Trend with All Objects
Collision Probability Evolution Trend with All Objects